Weather History for KMPV - December, 2010

Change the Weather History Date:

Tuesday, December 21, 2010

  Actual Average Record
Temperature  
Mean Temperature 22 °F 21 °F  
Max Temperature 25 °F 30 °F 56 °F (1957)
Min Temperature 19 °F 12 °F -22 °F (1955)
Degree Days  
Heating Degree Days 43 44  
Month to date heating degree days 844  
Since 1 July heating degree days 2690  
Cooling Degree Days 0 0  
Month to date cooling degree days 0  
Year to date cooling degree days 264  
Moisture  
Dew Point 19 °F    
Average Humidity 84    
Maximum Humidity 91    
Minimum Humidity 78    
Precipitation  
Precipitation 0.00 in 0.08 in 1.91 in (1973)
Month to date precipitation 1.96  
Year to date precipitation 36.49  
Sea Level Pressure  
Sea Level Pressure 29.93 in    
Wind  
Wind Speed 8 mph (NW)    
Max Wind Speed 13 mph    
Max Gust Speed 18 mph    
Visibility 9 miles    
Events Snow    
T = Trace of Precipitation, MM = Missing Value Source: NWS Daily Summary

Daily Weather History Graph

Daily Weather History Graph

Search for Another Location

Airport or City:

Trip Planner

Search our weather history database for the weather conditions in past years. The results will help you decide how hot, cold, wet, or windy it might be!

Date:

Astronomy

Dec. 21, 2010 Rise Set
Actual Time 7:22 AM EST 4:14 PM EST
Civil Twilight 6:49 AM EST 4:47 PM EST
Nautical Twilight 6:12 AM EST 5:24 PM EST
Astronomical Twilight 5:37 AM EST 5:59 PM EST
Moon 4:43 PM EST (12/21) 7:37 AM EST (12/21)
Length of Visible Light 9h 58m
Length of Day
8h 51m
Full, 100% of the Moon is Illuminated
Dec 21
Full
Dec 27
Last Quarter
Jan 4
New
Jan 12
First Quarter
Jan 19
Full

Hourly Weather History & Observations

Time (EST) Temp. Windchill Dew Point Humidity Pressure Visibility Wind Dir Wind Speed Gust Speed Precip Events Conditions
12:51 AM 19.0 °F 9.0 °F 15.1 °F 85% 29.95 in 5.0 mi NNW 8.1 mph - N/A   Overcast
1:51 AM 19.0 °F 9.0 °F 15.1 °F 85% 29.94 in 9.0 mi NNW 8.1 mph - N/A   Overcast
2:51 AM 19.0 °F 10.0 °F 15.1 °F 85% 29.94 in 9.0 mi NNW 6.9 mph - N/A   Overcast
3:51 AM 19.9 °F 10.1 °F 16.0 °F 85% 29.93 in 9.0 mi NNW 8.1 mph - N/A   Overcast
4:51 AM 19.4 °F 8.6 °F 15.8 °F 86% 29.86 in 10.0 mi NNW 9.2 mph 16.1 mph N/A   Overcast
5:51 AM 19.4 °F 8.6 °F 15.8 °F 86% 29.88 in 10.0 mi NW 9.2 mph - N/A   Overcast
6:51 AM 19.9 °F 9.3 °F 16.0 °F 85% 29.95 in 9.0 mi NW 9.2 mph - N/A   Overcast
7:51 AM 19.9 °F 8.6 °F 17.1 °F 89% 29.96 in 7.0 mi NW 10.4 mph - N/A   Overcast
8:51 AM 21.0 °F 9.9 °F 17.1 °F 85% 29.96 in 9.0 mi NW 10.4 mph - 0.00 in   Overcast
9:51 AM 21.9 °F 11.7 °F 17.1 °F 82% 29.97 in 10.0 mi NW 9.2 mph - N/A   Overcast
10:51 AM 23.0 °F 13.9 °F 17.1 °F 78% 29.94 in 10.0 mi NW 8.1 mph - N/A   Overcast
11:51 AM 23.0 °F 12.4 °F 18.0 °F 81% 29.91 in 10.0 mi NW 10.4 mph - N/A   Overcast
12:51 PM 24.1 °F 13.7 °F 19.0 °F 81% 29.90 in 10.0 mi NW 10.4 mph - N/A   Overcast
1:51 PM 24.1 °F 14.4 °F 19.0 °F 81% 29.91 in 10.0 mi NW 9.2 mph - N/A   Overcast
2:51 PM 24.1 °F 13.7 °F 19.0 °F 81% 29.92 in 10.0 mi NW 10.4 mph - N/A   Overcast
3:13 PM 24.8 °F 13.4 °F 19.4 °F 80% 29.87 in 10.0 mi NW 12.7 mph 18.4 mph N/A   Overcast
3:32 PM 24.8 °F 14.6 °F 19.4 °F 80% 29.87 in 10.0 mi NW 10.4 mph - N/A   Overcast
3:51 PM 24.1 °F 14.4 °F 19.0 °F 81% 29.94 in 10.0 mi NW 9.2 mph - N/A   Overcast
4:51 PM 24.1 °F 15.2 °F 19.0 °F 81% 29.95 in 10.0 mi NW 8.1 mph - N/A   Overcast
5:51 PM 24.1 °F 16.0 °F 19.9 °F 84% 29.97 in 10.0 mi NW 6.9 mph - N/A   Overcast
6:11 PM 24.8 °F 16.1 °F 19.4 °F 80% 29.91 in 10.0 mi NW 8.1 mph - N/A   Overcast
6:51 PM 24.1 °F 16.0 °F 21.0 °F 88% 29.98 in 9.0 mi NW 6.9 mph - N/A   Overcast
7:31 PM 24.8 °F 16.1 °F 21.2 °F 86% 29.91 in 9.0 mi NW 8.1 mph - N/A   Overcast
7:51 PM 24.1 °F 14.4 °F 21.0 °F 88% 29.97 in 10.0 mi NNW 9.2 mph - N/A   Overcast
8:39 PM 24.8 °F 19.1 °F 21.2 °F 86% 29.90 in 10.0 mi North 4.6 mph - N/A   Overcast
8:51 PM 24.1 °F 19.7 °F 21.9 °F 91% 29.96 in 8.0 mi NNW 3.5 mph - N/A   Overcast
9:06 PM 24.8 °F 20.5 °F 21.2 °F 86% 29.89 in 7.0 mi NNW 3.5 mph - 0.00 in Snow Light Snow
9:51 PM 25.0 °F - 21.9 °F 88% 29.94 in 10.0 mi Calm Calm - 0.00 in   Overcast
9:59 PM 24.8 °F - 21.2 °F 86% 29.88 in 10.0 mi Calm Calm - N/A   Overcast
10:51 PM 25.0 °F 18.1 °F 21.9 °F 88% 29.93 in 10.0 mi NNW 5.8 mph - N/A   Overcast
11:51 PM 25.0 °F 19.3 °F 21.0 °F 85% 29.92 in 10.0 mi NNW 4.6 mph - N/A   Overcast